Showing default

TANSTAAFL-2, 62378

Orbit data source: Space-Track

TANSTAAFL-2, 62378 is a payload satellite owned by True Anomaly (US) in LEO that was launched on Sat, 21 Dec 2024 UTC via an FALCON 9 launch vehicle from the Air Force Western Test Range (AFWTR). Payload-class satellites include a variety of spacecraft equipped with specific instruments for various scientific and technological missions. These include communications satellites like Starlink; space stations such as the ISS; scientific satellites like the Hubble; Earth observation satellites from companies like Planet Labs, Umbra, and HawkEye 360; GPS; miniature CubeSats for education and research; and military/defense satellites.

Loading next visibility...
Identifier
62378, 2024-247B
Orbit
LEO
Country
Flag of USUS
Related business
Manufacturer
True Anomaly
Mission
Operational Commercial Technology
Bus & Motor
JACKAL, Unknown motor
Mass
275 kg wet, 275 kg dry
Launch date (UTC)
2024-12-21 (10 months ago)
Launch vehicle
FALCON 9
Launch site
Air Force Western Test Range (AFWTR)
Object type
Payload
Rocket body
Debris
Shape & HBR
Box + 2 Pan, 2.3 m
Radar Cross Section
1.240 m², Large (>1 m²)

Expand to show TLE details & history
Last TLE update: 13 hours ago

TLE from 13 hours ago
0 TANSTAAFL-2
1 62378U 24247B   25297.92014713  .00010282  00000-0  41710-3 0  9996
2 62378  44.9921 137.0641 0002111 165.7141 194.3800 15.24855705 46983
Epoch: 2025-10-24T22:05Z
TLE epoch observation values (Epoch: 2025-10-24T22:05:00.712Z)
Latitude
-0.00006°
Longitude
132.25294°
Altitude
492.621 km
Speed
7.619 km/s
True Right ascension
09h 08m 15s
True Declination
0° 00' 00"
Sunlit
Object was in daylight at epoch
Visualization orbit readout
Latitude
Unknown
Longitude
Unknown
Altitude
Unknown
Speed
Unknown
Apparent Right ascension
Unknown
Apparent Declination
Unknown
Sunlit
N/A
Visualization observer readout
Local Sidereal Time
06:19:44
Azimuth
Unknown
Elevation
Unknown
Doppler factor
Unknown
Orbital elements
Apogee altitude
494.278 km
Perigee altitude
491.377 km
Semi-major axis
6,870.964 km
Eccentricity
0.00021
Inclination
44.9921°
RAAN
137.0641°
Arg. of periapsis
165.7141°
True anomaly
194.37399°
Mean anomaly
194.38°
Eccentric anomaly
194.377°
Mean motion
3.8108 °/min
Orbital period
94.47 mins
BSTAR
0.0004171
Loading maneuver chart data...
Computing Atmospheric mass density...
Loading historical data...
Loading historical data...
Loading historical data...
Loading historical data...
Loading historical data...
Loading historical data...
Loading historical data...

Documentation

Showing up to 5 results
|